User: anonymous   Login
Location: Newark
(12.4436°N, 0.6167°W)
Time: 12:28:52
(UTC+00:00)
Language:

Transit 2A - Orbit

View from above orbital plane
View from above orbital plane
View from above satellite
View from above satellite

Ground track
Ground track

The orbit data is extracted from the following two-line orbital elements,

1    45U 60007A   19349.85923510 -.00000064 +00000-0 +10690-4 0  9992
2    45 066.6931 147.3551 0248108 090.0153 272.9375 14.33659885039378
Epoch (UTC): 15 December 2019 20:37:17
Eccentricity: 0.0248108
inclination: 66.6931°
perigee height: 602 km
apogee height: 957 km
right ascension of ascending node: 147.3551°
argument of perigee: 90.0153°
revolutions per day: 14.33659885
mean anomaly at epoch: 272.9375°
orbit number at epoch: 3937

The dashed part of the orbit path shows where the satellite is in the earth's shadow,  

DLR